Total_Precipitation_Accumulation
3.15 3.35 3.28 3.08 3.13 3.24 3.52 3.85 3.94 3.64 3.45 3.26 2.91 2.75 2.86 2.95 3.12 2.93 2.99 2.90 2.43 2.17 2.14 2.25 2.25 2.21 2.28 2.46 2.71 2.97 3.13 3.21 3.36 3.65 4.04 4.40 4.70 5.04
3.37 3.44 3.29 3.02 3.21 3.22 3.35 3.74 4.09 4.17 3.77 3.18 2.94 2.83 2.97 2.77 2.84 2.60 2.66 2.59 2.24 2.02 1.91 1.93 1.93 1.88 1.90 1.97 2.11 2.36 2.53 2.70 2.84 2.93 3.11 3.38 3.68 3.94
3.26 3.17 3.08 3.15 3.35 3.28 3.42 3.58 3.86 4.15 3.79 3.29 3.13 3.13 3.25 3.15 2.98 2.63 2.37 2.27 2.09 2.12 1.94 1.79 1.78 1.80 1.84 1.96 2.04 2.12 2.26 2.44 2.60 2.72 2.84 3.00 3.13 3.29
3.23 3.21 3.04 3.20 3.30 3.28 3.36 3.34 3.46 3.83 3.70 3.40 3.30 3.37 3.30 3.17 3.08 2.87 2.47 2.23 2.26 2.36 2.12 1.95 1.89 1.93 1.82 1.86 1.95 1.98 2.08 2.21 2.37 2.46 2.47 2.47 2.60 2.85
3.24 3.17 3.02 3.15 3.03 3.10 3.15 3.14 3.13 3.28 3.50 3.35 3.17 3.29 3.21 3.09 3.10 2.97 2.86 2.94 2.64 2.45 2.31 2.12 2.04 2.06 1.99 1.89 1.90 1.93 2.01 2.02 2.00 2.13 2.28 2.37 2.39 2.45
2.84 2.77 2.79 2.94 3.03 3.07 2.98 2.95 3.04 3.20 3.33 3.33 3.23 3.30 3.32 3.36 3.31 3.21 3.23 3.16 2.93 2.41 2.32 2.11 2.01 1.99 1.94 1.85 1.82 1.91 1.98 2.00 1.99 1.96 2.03 2.13 2.22 2.32
2.55 2.37 2.39 2.74 2.90 2.91 2.68 2.82 2.95 3.01 3.08 3.22 3.23 3.30 3.39 3.65 3.45 3.22 3.15 3.26 3.08 2.81 2.58 2.26 2.15 2.11 2.08 2.03 1.90 1.81 1.78 1.84 1.92 2.04 2.17 2.28 2.35 2.40
2.29 2.23 2.20 2.27 2.31 2.37 2.40 2.45 2.56 2.65 2.89 3.23 3.29 3.25 3.21 3.34 3.50 3.47 3.42 3.37 3.24 3.09 3.13 2.94 2.61 2.56 2.45 2.28 2.15 1.83 1.56 1.56 1.70 1.83 2.09 2.37 2.62 2.70
2.24 2.31 1.98 1.79 2.01 2.03 2.22 2.24 2.17 2.29 2.45 2.75 2.93 2.93 3.07 3.12 3.49 3.51 3.58 3.59 3.52 3.49 3.54 3.50 3.16 2.85 2.55 2.44 2.39 1.99 1.71 1.56 1.57 1.67 1.81 2.03 2.33 2.67
2.13 2.17 2.11 1.99 1.99 2.15 2.28 2.24 2.05 2.01 2.03 1.99 2.19 2.50 2.81 3.16 3.30 3.41 3.58 3.67 3.67 3.53 3.47 3.46 3.22 3.05 2.69 2.43 2.34 2.13 1.81 1.60 1.52 1.57 1.59 1.66 1.82 2.08
2.06 2.01 1.97 1.90 2.05 2.00 1.94 1.94 1.94 1.93 1.83 1.84 1.89 2.12 2.38 2.51 2.77 3.07 3.32 3.35 3.23 3.05 2.99 3.11 3.06 3.09 3.02 2.74 2.40 2.33 1.95 1.68 1.59 1.58 1.54 1.54 1.65 1.81
2.04 2.01 1.91 1.77 1.83 1.78 1.69 1.81 1.81 1.83 1.95 1.93 1.80 1.77 1.83 2.05 2.22 2.29 2.67 2.93 2.79 2.70 2.48 2.54 2.55 2.82 3.01 2.69 2.41 2.38 2.21 1.98 1.79 1.72 1.67 1.63 1.69 1.60
2.08 2.00 1.96 1.89 1.70 1.68 1.63 1.63 1.71 1.81 1.93 2.00 1.94 1.83 1.91 2.05 2.01 2.00 2.25 2.59 2.69 2.45 2.27 2.53 2.51 2.58 2.66 2.52 2.35 2.26 2.24 2.23 2.12 1.98 1.89 1.81 1.79 1.73
2.23 2.19 2.13 1.96 1.72 1.68 1.59 1.55 1.60 1.53 1.51 1.70 1.77 1.71 1.74 1.83 1.90 1.93 2.05 2.20 2.38 2.35 2.42 2.58 2.63 2.64 2.62 2.51 2.40 2.27 2.14 2.09 2.17 2.34 2.41 2.41 2.18 2.09
2.26 2.37 2.15 1.91 1.74 1.56 1.57 1.62 1.53 1.38 1.44 1.50 1.52 1.55 1.57 1.70 1.94 2.14 2.27 2.40 2.41 2.21 2.07 2.19 2.35 2.59 2.70 2.49 2.26 2.25 2.34 2.20 2.14 2.29 2.38 2.42 2.44 2.45
2.11 2.21 2.10 1.92 1.76 1.62 1.60 1.61 1.51 1.53 1.64 1.60 1.60 1.68 1.75 1.85 1.99 2.09 2.27 2.46 2.49 2.21 2.10 2.12 2.27 2.55 2.62 2.42 2.31 2.22 2.36 2.48 2.29 2.39 2.56 2.56 2.52 2.52
2.27 2.22 2.16 2.02 1.88 1.77 1.75 1.78 1.83 1.84 1.82 1.82 1.86 1.87 1.88 1.93 2.01 2.13 2.28 2.40 2.38 2.13 2.00 2.12 2.27 2.55 2.63 2.62 2.52 2.27 2.29 2.34 2.30 2.41 2.67 2.68 2.59 2.54
2.28 2.14 2.23 2.17 2.03 1.95 1.93 1.94 1.96 1.91 1.91 2.01 2.01 1.99 1.98 1.99 2.03 2.09 2.15 2.16 2.19 2.17 2.10 2.13 2.37 2.63 2.74 2.56 2.27 2.18 2.12 2.07 2.20 2.44 2.53 2.53 2.36 2.25
1.91 1.93 2.06 2.09 2.01 1.97 1.95 1.92 1.84 1.92 2.03 2.00 1.97 2.03 2.06 2.05 2.11 2.17 2.21 2.26 2.22 2.19 2.20 2.31 2.43 2.54 2.53 2.29 2.04 1.90 2.00 2.05 2.19 2.36 2.37 2.29 2.15 2.12
1.67 1.75 1.82 1.91 1.93 1.95 1.97 1.99 1.93 1.95 1.99 1.99 1.99 2.05 2.13 2.14 2.17 2.18 2.13 2.18 2.29 2.31 2.33 2.30 2.30 2.32 2.31 2.32 2.25 2.06 1.95 2.14 2.24 2.23 2.16 2.14 2.10 2.09
1.55 1.61 1.66 1.69 1.75 1.82 1.83 1.91 1.93 1.92 1.93 1.98 1.95 1.99 2.06 2.10 2.15 2.15 2.12 2.19 2.24 2.25 2.25 2.15 2.18 2.46 2.60 2.66 2.45 2.16 2.14 2.24 2.31 2.26 2.28 2.34 2.23 2.12
1.59 1.61 1.59 1.62 1.69 1.77 1.84 1.90 1.91 1.94 2.01 2.03 2.01 2.04 2.07 2.10 2.12 2.16 2.20 2.23 2.22 2.20 2.21 2.26 2.40 2.59 2.71 2.66 2.45 2.36 2.44 2.46 2.48 2.41 2.26 2.22 2.06 1.89
1.57 1.57 1.55 1.54 1.59 1.69 1.77 1.84 1.91 1.99 2.00 2.03 2.11 2.11 2.06 2.05 2.05 2.11 2.15 2.18 2.24 2.31 2.44 2.48 2.46 2.46 2.48 2.51 2.48 2.41 2.35 2.45 2.53 2.47 2.25 2.12 1.91 1.67